Location: Chillicothe
(39.7950°N, 93.5520°W)
Time: 06:41:22
(UTC-06:00)

Explorer 11/Cluster Stage 4 - Pass Details

Date: 26 October 2019
Orbit: 467 x 1259 km, 28.8° (Epoch: 16 November)

Event Time Altitude Azimuth Distance (km) Brightness Sun altitude
Rises 09:24:35 0° 243° (WSW) 2,722 9.1 18.0°
Reaches altitude 10° 09:27:39 10° 221° (SW) 1,723 8.4 18.5°
Maximum altitude 09:30:03 16° 183° (S) 1,343 8.4 18.9°
Drops below altitude 10° 09:32:20 10° 144° (SE) 1,624 9.9 19.2°
Sets 09:35:05 0° 121° (ESE) 2,481 10.8 19.6°
